Year,Month,Day,Hour,Minute,Value (Times are PST for windspeed in km/hr)
2012,12,15,00,00,19.00
2012,12,15,00,01,18.80
2012,12,15,00,02,16.10
2012,12,15,00,03,14.90
2012,12,15,00,04,15.40
2012,12,15,00,05,12.90
2012,12,15,00,06,15.10
2012,12,15,00,07,15.50
2012,12,15,00,08,12.60
2012,12,15,00,09,9.60
2012,12,15,00,10,13.00
2012,12,15,00,11,13.30
2012,12,15,00,12,9.00
2012,12,15,00,13,12.00
2012,12,15,00,14,12.90
2012,12,15,00,15,12.20
2012,12,15,00,16,10.90
2012,12,15,00,17,14.30
2012,12,15,00,18,9.80
2012,12,15,00,19,9.70
2012,12,15,00,20,12.20
2012,12,15,00,21,10.50
2012,12,15,00,22,14.10
2012,12,15,00,23,9.90
2012,12,15,00,24,13.60
2012,12,15,00,25,13.00
2012,12,15,00,26,13.30
2012,12,15,00,27,11.80
2012,12,15,00,28,10.10
2012,12,15,00,29,9.60
2012,12,15,00,30,12.40
2012,12,15,00,31,13.40
2012,12,15,00,32,13.70
2012,12,15,00,33,13.00
2012,12,15,00,34,15.80
2012,12,15,00,35,17.20
2012,12,15,00,36,13.40
2012,12,15,00,37,9.80
2012,12,15,00,38,9.60
2012,12,15,00,39,11.30
2012,12,15,00,40,12.90
2012,12,15,00,41,11.00
2012,12,15,00,42,9.70
2012,12,15,00,43,12.90
2012,12,15,00,44,14.80
2012,12,15,00,45,10.90
2012,12,15,00,46,10.80
2012,12,15,00,47,11.00
2012,12,15,00,48,12.10
2012,12,15,00,49,18.10
2012,12,15,00,50,14.70
2012,12,15,00,51,17.90
2012,12,15,00,52,12.30
2012,12,15,00,53,12.90
2012,12,15,00,54,11.90
2012,12,15,00,55,12.50
2012,12,15,00,56,16.00
2012,12,15,00,57,15.00
2012,12,15,00,58,9.70
2012,12,15,00,59,13.10
2012,12,15,01,00,14.20
2012,12,15,01,01,11.80
2012,12,15,01,02,17.30
2012,12,15,01,03,14.90
2012,12,15,01,04,13.00
2012,12,15,01,05,12.10
2012,12,15,01,06,13.80
2012,12,15,01,07,14.60
2012,12,15,01,08,13.60
2012,12,15,01,09,15.40
2012,12,15,01,10,16.60
2012,12,15,01,11,13.70
2012,12,15,01,12,15.80
2012,12,15,01,13,16.20
2012,12,15,01,14,19.60
2012,12,15,01,15,17.90
2012,12,15,01,16,17.10
2012,12,15,01,17,14.50
2012,12,15,01,18,14.50
2012,12,15,01,19,15.60
2012,12,15,01,20,15.90
2012,12,15,01,21,15.60
2012,12,15,01,22,16.70
2012,12,15,01,23,17.20
2012,12,15,01,24,15.00
2012,12,15,01,25,14.70
2012,12,15,01,26,14.50
2012,12,15,01,27,16.00
2012,12,15,01,28,16.00
2012,12,15,01,29,11.60
2012,12,15,01,30,12.40
2012,12,15,01,31,18.00
2012,12,15,01,32,20.40
2012,12,15,01,33,17.90
2012,12,15,01,34,15.70
2012,12,15,01,35,21.60
2012,12,15,01,36,18.10
2012,12,15,01,37,16.30
2012,12,15,01,38,16.40
2012,12,15,01,39,17.50
2012,12,15,01,40,18.80
2012,12,15,01,41,20.00
2012,12,15,01,42,19.80
2012,12,15,01,43,16.50
2012,12,15,01,44,20.00
2012,12,15,01,45,20.00
2012,12,15,01,46,13.50
2012,12,15,01,47,16.40
2012,12,15,01,48,17.90
2012,12,15,01,49,13.60
2012,12,15,01,50,12.00
2012,12,15,01,51,13.50
2012,12,15,01,52,14.30
2012,12,15,01,53,16.00
2012,12,15,01,54,16.30
2012,12,15,01,55,16.10
2012,12,15,01,56,19.10
2012,12,15,01,57,18.30
2012,12,15,01,58,17.20
2012,12,15,01,59,16.10
2012,12,15,02,00,18.50
2012,12,15,02,01,20.90
2012,12,15,02,02,17.20
2012,12,15,02,03,15.40
2012,12,15,02,04,12.90
2012,12,15,02,05,16.70
2012,12,15,02,06,15.00
2012,12,15,02,07,13.20
2012,12,15,02,08,17.00
2012,12,15,02,09,15.00
2012,12,15,02,10,20.70
2012,12,15,02,11,19.70
2012,12,15,02,12,17.90
2012,12,15,02,13,15.10
2012,12,15,02,14,19.50
2012,12,15,02,15,19.40
2012,12,15,02,16,21.60
2012,12,15,02,17,23.40
2012,12,15,02,18,20.40
2012,12,15,02,19,21.50
2012,12,15,02,20,18.90
2012,12,15,02,21,15.50
2012,12,15,02,22,18.70
2012,12,15,02,23,22.50
2012,12,15,02,24,18.20
2012,12,15,02,25,22.00
2012,12,15,02,26,17.10
2012,12,15,02,27,18.30
2012,12,15,02,28,20.10
2012,12,15,02,29,16.90
2012,12,15,02,30,14.20
2012,12,15,02,31,17.50
2012,12,15,02,32,17.20
2012,12,15,02,33,19.30
2012,12,15,02,34,20.90
2012,12,15,02,35,17.20
2012,12,15,02,36,17.50
2012,12,15,02,37,19.20
2012,12,15,02,38,19.30
2012,12,15,02,39,20.70
2012,12,15,02,40,17.50
2012,12,15,02,41,16.80
2012,12,15,02,42,19.30
2012,12,15,02,43,18.00
2012,12,15,02,44,22.20
2012,12,15,02,45,21.90
2012,12,15,02,46,18.70
2012,12,15,02,47,17.60
2012,12,15,02,48,15.50
2012,12,15,02,49,17.50
2012,12,15,02,50,18.60
2012,12,15,02,51,16.70
2012,12,15,02,52,15.40
2012,12,15,02,53,13.00
2012,12,15,02,54,15.10
2012,12,15,02,55,15.50
2012,12,15,02,56,15.90
2012,12,15,02,57,16.70
2012,12,15,02,58,14.80
2012,12,15,02,59,15.70
2012,12,15,03,00,15.80
2012,12,15,03,01,16.60
2012,12,15,03,02,18.30
2012,12,15,03,03,20.50
2012,12,15,03,06,15.00
2012,12,15,03,07,15.40
2012,12,15,03,08,16.40
2012,12,15,03,09,17.40
2012,12,15,03,10,18.80
2012,12,15,03,11,18.30
2012,12,15,03,12,14.60
2012,12,15,03,13,15.00
2012,12,15,03,14,19.10
2012,12,15,03,15,16.30
2012,12,15,03,16,20.10
2012,12,15,03,17,24.00
2012,12,15,03,18,20.80
2012,12,15,03,19,21.50
2012,12,15,03,20,22.30
2012,12,15,03,21,23.20
2012,12,15,03,22,17.90
2012,12,15,03,23,19.60
2012,12,15,03,24,19.60
2012,12,15,03,25,19.50
2012,12,15,03,26,22.80
2012,12,15,03,27,26.50
2012,12,15,03,28,21.10
2012,12,15,03,29,21.90
2012,12,15,03,30,20.20
2012,12,15,03,31,23.80
2012,12,15,03,32,17.50
2012,12,15,03,33,14.20
2012,12,15,03,34,13.80
2012,12,15,03,35,21.50
2012,12,15,03,36,20.50
2012,12,15,03,37,25.20
2012,12,15,03,38,33.00
2012,12,15,03,39,30.20
2012,12,15,03,40,26.70
2012,12,15,03,41,27.00
2012,12,15,03,42,28.70
2012,12,15,03,43,24.20
2012,12,15,03,44,32.50
2012,12,15,03,45,27.70
2012,12,15,03,46,33.50
2012,12,15,03,47,31.70
2012,12,15,03,48,26.60
2012,12,15,03,49,30.60
2012,12,15,03,50,23.50
2012,12,15,03,51,20.50
2012,12,15,03,52,26.90
2012,12,15,03,53,29.50
2012,12,15,03,54,21.00
2012,12,15,03,55,25.10
2012,12,15,03,56,19.90
2012,12,15,03,57,33.70
2012,12,15,03,58,29.50
2012,12,15,03,59,32.90
2012,12,15,04,00,30.20
2012,12,15,04,01,26.70
2012,12,15,04,02,30.30
2012,12,15,04,03,29.70
2012,12,15,04,04,29.50
2012,12,15,04,05,28.80
2012,12,15,04,06,29.10
2012,12,15,04,07,28.90
2012,12,15,04,08,31.70
2012,12,15,04,09,30.40
2012,12,15,04,10,27.80
2012,12,15,04,11,32.00
2012,12,15,04,12,35.80
2012,12,15,04,13,37.90
2012,12,15,04,14,27.40
2012,12,15,04,15,21.00
2012,12,15,04,16,26.10
2012,12,15,04,17,31.20
2012,12,15,04,18,28.20
2012,12,15,04,19,26.80
2012,12,15,04,20,29.60
2012,12,15,04,21,31.90
2012,12,15,04,22,32.90
2012,12,15,04,23,30.80
2012,12,15,04,24,30.40
2012,12,15,04,25,30.10
2012,12,15,04,26,31.50
2012,12,15,04,27,31.80
2012,12,15,04,28,28.50
2012,12,15,04,29,24.80
2012,12,15,04,30,28.10
2012,12,15,04,31,27.20
2012,12,15,04,32,26.00
2012,12,15,04,33,24.30
2012,12,15,04,34,29.90
2012,12,15,04,35,25.80
2012,12,15,04,36,24.90
2012,12,15,04,37,23.20
2012,12,15,04,38,25.80
2012,12,15,04,39,25.50
2012,12,15,04,40,22.20
2012,12,15,04,41,21.70
2012,12,15,04,42,15.90
2012,12,15,04,43,20.40
2012,12,15,04,44,22.60
2012,12,15,04,45,28.70
2012,12,15,04,46,26.90
2012,12,15,04,47,23.20
2012,12,15,04,48,23.60
2012,12,15,04,49,24.10
2012,12,15,04,50,21.90
2012,12,15,04,51,23.80
2012,12,15,04,52,22.70
2012,12,15,04,53,22.50
2012,12,15,04,54,21.60
2012,12,15,04,55,25.40
2012,12,15,04,56,20.80
2012,12,15,04,57,18.00
2012,12,15,04,58,16.20
2012,12,15,04,59,23.30
2012,12,15,05,00,23.60
2012,12,15,05,01,22.50
2012,12,15,05,02,24.90
2012,12,15,05,03,23.90
2012,12,15,05,04,24.60
2012,12,15,05,05,33.00
2012,12,15,05,06,22.20
2012,12,15,05,07,22.50
2012,12,15,05,08,35.50
2012,12,15,05,09,20.90
2012,12,15,05,10,20.70
2012,12,15,05,11,23.40
2012,12,15,05,12,20.50
2012,12,15,05,13,26.20
2012,12,15,05,14,24.50
2012,12,15,05,15,25.50
2012,12,15,05,16,23.60
2012,12,15,05,17,24.40
2012,12,15,05,18,24.10
2012,12,15,05,19,26.10
2012,12,15,05,20,30.30
2012,12,15,05,21,32.80
2012,12,15,05,22,27.20
2012,12,15,05,23,29.90
2012,12,15,05,24,29.00
2012,12,15,05,25,28.40
2012,12,15,05,26,29.70
2012,12,15,05,27,28.00
2012,12,15,05,28,37.30
2012,12,15,05,29,35.60
2012,12,15,05,30,32.20
2012,12,15,05,31,33.50
2012,12,15,05,32,39.70
2012,12,15,05,33,26.20
2012,12,15,05,34,22.80
2012,12,15,05,35,21.90
2012,12,15,05,36,23.70
2012,12,15,05,37,24.30
2012,12,15,05,38,23.60
2012,12,15,05,39,35.30
2012,12,15,05,40,34.30
2012,12,15,05,41,25.70
2012,12,15,05,42,25.30
2012,12,15,05,43,21.90
2012,12,15,05,44,21.20
2012,12,15,05,45,23.70
2012,12,15,05,46,26.30
2012,12,15,05,47,27.60
2012,12,15,05,48,32.60
2012,12,15,05,49,35.30
2012,12,15,05,50,35.20
2012,12,15,05,51,36.90
2012,12,15,05,52,35.00
2012,12,15,05,53,23.50
2012,12,15,05,54,31.20
2012,12,15,05,55,30.10
2012,12,15,05,56,26.80
2012,12,15,05,57,26.80
2012,12,15,05,58,28.20
2012,12,15,05,59,22.70
2012,12,15,06,00,22.80
2012,12,15,06,01,28.10
2012,12,15,06,02,32.60
2012,12,15,06,03,30.40
2012,12,15,06,04,32.20
2012,12,15,06,05,35.00
2012,12,15,06,06,29.80
2012,12,15,06,07,24.60
2012,12,15,06,08,23.50
2012,12,15,06,09,22.40
2012,12,15,06,10,26.50
2012,12,15,06,11,32.10
2012,12,15,06,12,26.60
2012,12,15,06,13,33.50
2012,12,15,06,14,29.20
2012,12,15,06,15,28.70
2012,12,15,06,16,29.90
2012,12,15,06,17,28.00
2012,12,15,06,18,29.10
2012,12,15,06,19,32.60
2012,12,15,06,20,28.00
2012,12,15,06,21,25.40
2012,12,15,06,22,36.50
2012,12,15,06,23,41.70
2012,12,15,06,24,27.20
2012,12,15,06,25,32.30
2012,12,15,06,26,29.10
2012,12,15,06,27,37.70
2012,12,15,06,28,32.50
2012,12,15,06,29,30.90
2012,12,15,06,30,31.00
2012,12,15,06,31,40.70
2012,12,15,06,32,41.20
2012,12,15,06,33,28.90
2012,12,15,06,34,34.80
2012,12,15,06,35,42.60
2012,12,15,06,36,31.30
2012,12,15,06,37,29.90
2012,12,15,06,38,38.30
2012,12,15,06,39,30.40
2012,12,15,06,40,34.00
2012,12,15,06,41,35.80
2012,12,15,06,42,32.00
2012,12,15,06,43,24.30
2012,12,15,06,44,30.40
2012,12,15,06,45,31.50
2012,12,15,06,46,27.50
2012,12,15,06,47,30.20
2012,12,15,06,48,28.90
2012,12,15,06,49,36.00
2012,12,15,06,50,31.90
2012,12,15,06,51,23.10
2012,12,15,06,52,29.20
2012,12,15,06,53,26.60
2012,12,15,06,54,36.10
2012,12,15,06,55,33.60
2012,12,15,06,56,31.60
2012,12,15,06,57,24.50
2012,12,15,06,58,23.70
2012,12,15,06,59,30.30
2012,12,15,07,00,27.90
2012,12,15,07,01,30.40
2012,12,15,07,02,38.20
2012,12,15,07,03,31.10
2012,12,15,07,04,25.70
2012,12,15,07,05,30.00
2012,12,15,07,06,29.80
2012,12,15,07,07,39.80
2012,12,15,07,08,31.40
2012,12,15,07,09,43.00
2012,12,15,07,10,44.00
2012,12,15,07,11,29.50
2012,12,15,07,12,22.30
2012,12,15,07,13,27.70
2012,12,15,07,14,31.20
2012,12,15,07,15,30.80
2012,12,15,07,16,31.10
2012,12,15,07,17,26.50
2012,12,15,07,18,27.20
2012,12,15,07,19,27.20
2012,12,15,07,20,34.30
2012,12,15,07,21,31.10
2012,12,15,07,22,34.00
2012,12,15,07,23,36.30
2012,12,15,07,24,29.30
2012,12,15,07,25,23.80
2012,12,15,07,26,28.20
2012,12,15,07,27,35.70
2012,12,15,07,28,36.30
2012,12,15,07,29,34.60
2012,12,15,07,30,40.70
2012,12,15,07,31,32.70
2012,12,15,07,32,29.20
2012,12,15,07,33,28.00
2012,12,15,07,34,25.80
2012,12,15,07,35,31.80
2012,12,15,07,36,33.50
2012,12,15,07,37,29.40
2012,12,15,07,38,25.20
2012,12,15,07,39,38.20
2012,12,15,07,40,33.60
2012,12,15,07,41,34.80
2012,12,15,07,42,35.70
2012,12,15,07,43,28.30
2012,12,15,07,44,31.60
2012,12,15,07,45,27.70
2012,12,15,07,46,27.40
2012,12,15,07,47,29.50
2012,12,15,07,48,34.80
2012,12,15,07,49,27.50
2012,12,15,07,50,33.30
2012,12,15,07,51,31.80
2012,12,15,07,52,35.20
2012,12,15,07,53,34.00
2012,12,15,07,54,37.50
2012,12,15,07,55,29.90
2012,12,15,07,56,27.80
2012,12,15,07,57,29.30
2012,12,15,07,58,34.30
2012,12,15,07,59,31.50
2012,12,15,08,00,30.20
2012,12,15,08,01,41.90
2012,12,15,08,02,35.70
2012,12,15,08,03,25.10
2012,12,15,08,04,27.80
2012,12,15,08,05,36.40
2012,12,15,08,06,37.10
2012,12,15,08,07,30.90
2012,12,15,08,08,28.10
2012,12,15,08,09,36.70
2012,12,15,08,10,32.60
2012,12,15,08,11,32.60
2012,12,15,08,12,35.60
2012,12,15,08,13,41.00
2012,12,15,08,14,35.90
2012,12,15,08,15,33.60
2012,12,15,08,16,29.40
2012,12,15,08,17,34.80
2012,12,15,08,18,29.50
2012,12,15,08,19,36.00
2012,12,15,08,20,45.70
2012,12,15,08,21,32.40
2012,12,15,08,22,26.80
2012,12,15,08,23,29.40
2012,12,15,08,24,35.00
2012,12,15,08,25,39.40
2012,12,15,08,26,32.80
2012,12,15,08,27,27.70
2012,12,15,08,28,28.30
2012,12,15,08,29,34.50
2012,12,15,08,30,23.20
2012,12,15,08,31,27.40
2012,12,15,08,32,24.30
2012,12,15,08,33,23.90
2012,12,15,08,34,22.90
2012,12,15,08,35,34.60
2012,12,15,08,36,33.10
2012,12,15,08,37,33.40
2012,12,15,08,38,29.70
2012,12,15,08,39,27.80
2012,12,15,08,40,25.80
2012,12,15,08,41,30.60
2012,12,15,08,42,22.00
2012,12,15,08,43,16.40
2012,12,15,08,44,21.80
2012,12,15,08,45,33.70
2012,12,15,08,46,32.30
2012,12,15,08,47,32.30
2012,12,15,08,48,34.80
2012,12,15,08,49,41.10
2012,12,15,08,50,33.90
2012,12,15,08,51,35.30
2012,12,15,08,52,29.00
2012,12,15,08,53,26.60
2012,12,15,08,54,27.40
2012,12,15,08,55,34.30
2012,12,15,08,56,37.20
2012,12,15,08,57,26.30
2012,12,15,08,58,26.60
2012,12,15,08,59,26.40
2012,12,15,09,00,28.90
2012,12,15,09,01,27.60
2012,12,15,09,02,32.00
2012,12,15,09,03,26.70
2012,12,15,09,04,35.70
2012,12,15,09,05,28.70
2012,12,15,09,06,27.10
2012,12,15,09,07,24.10
2012,12,15,09,08,30.40
2012,12,15,09,09,24.30
2012,12,15,09,10,22.80
2012,12,15,09,11,27.30
2012,12,15,09,12,26.70
2012,12,15,09,13,34.10
2012,12,15,09,14,27.60
2012,12,15,09,15,33.00
2012,12,15,09,16,35.20
2012,12,15,09,17,29.10
2012,12,15,09,18,29.00
2012,12,15,09,19,27.80
2012,12,15,09,20,29.60
2012,12,15,09,21,32.00
2012,12,15,09,22,31.30
2012,12,15,09,23,24.20
2012,12,15,09,24,30.20
2012,12,15,09,25,32.30
2012,12,15,09,26,38.50
2012,12,15,09,27,29.90
2012,12,15,09,28,30.70
2012,12,15,09,29,35.30
2012,12,15,09,30,24.20
2012,12,15,09,31,26.80
2012,12,15,09,32,27.80
2012,12,15,09,33,23.20
2012,12,15,09,34,25.40
2012,12,15,09,35,28.00
2012,12,15,09,36,26.60
2012,12,15,09,37,24.60
2012,12,15,09,38,27.10
2012,12,15,09,39,23.90
2012,12,15,09,40,38.50
2012,12,15,09,41,34.90
2012,12,15,09,42,30.70
2012,12,15,09,43,26.80
2012,12,15,09,44,30.60
2012,12,15,09,45,30.60
2012,12,15,09,46,33.60
2012,12,15,09,47,26.20
2012,12,15,09,48,23.80
2012,12,15,09,49,30.70
2012,12,15,09,50,22.90
2012,12,15,09,51,27.30
2012,12,15,09,52,36.20
2012,12,15,09,53,27.40
2012,12,15,09,54,33.80
2012,12,15,09,55,26.80
2012,12,15,09,56,26.30
2012,12,15,09,57,32.50
2012,12,15,09,58,29.10
2012,12,15,09,59,23.80
2012,12,15,10,00,20.00
2012,12,15,10,01,26.20
2012,12,15,10,02,21.90
2012,12,15,10,03,23.30
2012,12,15,10,04,23.90
2012,12,15,10,05,23.00
2012,12,15,10,06,33.60
2012,12,15,10,07,36.40
2012,12,15,10,08,26.70
2012,12,15,10,09,36.50
2012,12,15,10,10,40.00
2012,12,15,10,11,39.20
2012,12,15,10,12,30.40
2012,12,15,10,13,37.70
2012,12,15,10,14,29.90
2012,12,15,10,15,32.20
2012,12,15,10,16,29.40
2012,12,15,10,17,25.70
2012,12,15,10,18,27.40
2012,12,15,10,19,36.90
2012,12,15,10,20,28.00
2012,12,15,10,21,24.90
2012,12,15,10,22,24.60
2012,12,15,10,23,39.10
2012,12,15,10,24,26.10
2012,12,15,10,25,27.30
2012,12,15,10,26,26.40
2012,12,15,10,27,29.10
2012,12,15,10,28,23.60
2012,12,15,10,29,22.00
2012,12,15,10,30,22.70
2012,12,15,10,31,23.20
2012,12,15,10,32,18.00
2012,12,15,10,33,23.50
2012,12,15,10,34,29.30
2012,12,15,10,35,28.40
2012,12,15,10,36,22.10
2012,12,15,10,37,23.60
2012,12,15,10,38,30.90
2012,12,15,10,39,35.80
2012,12,15,10,40,33.40
2012,12,15,10,41,28.30
2012,12,15,10,42,30.80
2012,12,15,10,43,27.70
2012,12,15,10,44,20.00
2012,12,15,10,45,27.20
2012,12,15,10,46,21.80
2012,12,15,10,47,23.30
2012,12,15,10,48,24.40
2012,12,15,10,49,21.40
2012,12,15,10,50,21.80
2012,12,15,10,51,25.70
2012,12,15,10,52,19.80
2012,12,15,10,53,25.30
2012,12,15,10,54,20.20
2012,12,15,10,55,18.00
2012,12,15,10,56,22.90
2012,12,15,10,57,27.00
2012,12,15,10,58,32.60
2012,12,15,10,59,21.20
2012,12,15,11,00,19.60
2012,12,15,11,01,26.10
2012,12,15,11,02,26.90
2012,12,15,11,03,38.20
2012,12,15,11,04,23.10
2012,12,15,11,05,35.60
2012,12,15,11,06,35.40
2012,12,15,11,07,31.30
2012,12,15,11,08,23.70
2012,12,15,11,09,14.90
2012,12,15,11,10,16.70
2012,12,15,11,11,20.00
2012,12,15,11,12,24.40
2012,12,15,11,13,22.00
2012,12,15,11,14,23.20
2012,12,15,11,15,26.80
2012,12,15,11,16,35.30
2012,12,15,11,17,25.00
2012,12,15,11,18,19.20
2012,12,15,11,19,20.40
2012,12,15,11,20,26.00
2012,12,15,11,21,21.90
2012,12,15,11,22,17.50
2012,12,15,11,23,21.20
2012,12,15,11,24,16.80
2012,12,15,11,25,14.60
2012,12,15,11,26,19.00
2012,12,15,11,27,20.20
2012,12,15,11,28,20.40
2012,12,15,11,29,20.30
2012,12,15,11,30,17.50
2012,12,15,11,31,20.50
2012,12,15,11,32,20.10
2012,12,15,11,33,18.70
2012,12,15,11,34,15.30
2012,12,15,11,35,14.90
2012,12,15,11,36,21.20
2012,12,15,11,37,29.30
2012,12,15,11,38,24.90
2012,12,15,11,39,20.00
2012,12,15,11,40,20.00
2012,12,15,11,41,21.80
2012,12,15,11,42,25.40
2012,12,15,11,43,22.50
2012,12,15,11,44,26.70
2012,12,15,11,45,27.80
2012,12,15,11,46,24.60
2012,12,15,11,47,23.70
2012,12,15,11,48,19.30
2012,12,15,11,49,14.40
2012,12,15,11,50,19.60
2012,12,15,11,51,13.40
2012,12,15,11,52,16.30
2012,12,15,11,53,17.50
2012,12,15,11,54,21.50
2012,12,15,11,55,16.50
2012,12,15,11,56,17.10
2012,12,15,11,57,20.80
2012,12,15,11,58,16.70
2012,12,15,11,59,14.50
2012,12,15,12,00,20.40
2012,12,15,12,01,19.00
2012,12,15,12,02,15.10
2012,12,15,12,03,16.80
2012,12,15,12,04,18.30
2012,12,15,12,05,20.00
2012,12,15,12,06,26.10
2012,12,15,12,07,23.20
2012,12,15,12,08,23.60
2012,12,15,12,09,28.30
2012,12,15,12,10,25.60
2012,12,15,12,11,31.10
2012,12,15,12,12,22.80
2012,12,15,12,13,17.80
2012,12,15,12,14,19.30
2012,12,15,12,15,18.30
2012,12,15,12,16,23.60
2012,12,15,12,17,25.70
2012,12,15,12,18,30.50
2012,12,15,12,19,28.60
2012,12,15,12,20,26.20
2012,12,15,12,21,27.40
2012,12,15,12,22,25.40
2012,12,15,12,23,27.00
2012,12,15,12,24,25.00
2012,12,15,12,25,32.30
2012,12,15,12,26,25.90
2012,12,15,12,27,23.30
2012,12,15,12,28,31.10
2012,12,15,12,29,30.50
2012,12,15,12,30,32.30
2012,12,15,12,31,36.60
2012,12,15,12,32,36.20
2012,12,15,12,33,35.60
2012,12,15,12,34,30.70
2012,12,15,12,35,33.90
2012,12,15,12,36,32.00
2012,12,15,12,37,27.60
2012,12,15,12,38,27.90
2012,12,15,12,39,30.90
2012,12,15,12,40,34.60
2012,12,15,12,41,34.30
2012,12,15,12,42,29.40
2012,12,15,12,43,24.00
2012,12,15,12,44,30.20
2012,12,15,12,45,27.60
2012,12,15,12,46,30.00
2012,12,15,12,47,29.60
2012,12,15,12,48,26.10
2012,12,15,12,49,33.10
2012,12,15,12,50,23.40
2012,12,15,12,51,25.00
2012,12,15,12,52,25.90
2012,12,15,12,53,26.00
2012,12,15,12,54,24.60
2012,12,15,12,55,25.00
2012,12,15,12,56,29.50
2012,12,15,12,57,28.50
2012,12,15,12,58,24.50
2012,12,15,12,59,26.50
2012,12,15,13,00,29.10
2012,12,15,13,01,29.20
2012,12,15,13,02,28.20
2012,12,15,13,03,21.70
2012,12,15,13,04,21.00
2012,12,15,13,05,22.00
2012,12,15,13,06,22.00
2012,12,15,13,07,27.40
2012,12,15,13,08,26.60
2012,12,15,13,09,18.30
2012,12,15,13,10,20.70
2012,12,15,13,11,23.40
2012,12,15,13,12,27.30
2012,12,15,13,13,23.70
2012,12,15,13,14,21.60
2012,12,15,13,15,19.30
2012,12,15,13,16,24.00
2012,12,15,13,17,19.00
2012,12,15,13,18,18.50
2012,12,15,13,19,21.00
2012,12,15,13,20,20.90
2012,12,15,13,21,21.00
2012,12,15,13,22,21.10
2012,12,15,13,23,20.60
2012,12,15,13,24,20.70
2012,12,15,13,25,20.00
2012,12,15,13,26,17.40
2012,12,15,13,27,15.00
2012,12,15,13,28,15.80
2012,12,15,13,29,14.40
2012,12,15,13,30,19.50
2012,12,15,13,31,21.60
2012,12,15,13,32,25.60
2012,12,15,13,33,26.20
2012,12,15,13,34,22.40
2012,12,15,13,35,28.30
2012,12,15,13,36,27.40
2012,12,15,13,37,22.60
2012,12,15,13,38,21.90
2012,12,15,13,39,22.80
2012,12,15,13,40,23.60
2012,12,15,13,41,25.70
2012,12,15,13,42,23.10
2012,12,15,13,43,28.50
2012,12,15,13,44,26.60
2012,12,15,13,45,28.90
2012,12,15,13,46,23.70
2012,12,15,13,47,21.20
2012,12,15,13,48,26.60
2012,12,15,13,49,27.60
2012,12,15,13,50,23.60
2012,12,15,13,51,21.40
2012,12,15,13,52,22.60
2012,12,15,13,53,27.80
2012,12,15,13,54,25.40
2012,12,15,13,55,28.00
2012,12,15,13,56,20.60
2012,12,15,13,57,26.00
2012,12,15,13,58,28.30
2012,12,15,13,59,28.20
2012,12,15,14,00,21.20
2012,12,15,14,01,16.30
2012,12,15,14,02,18.00
2012,12,15,14,03,23.30
2012,12,15,14,04,27.50
2012,12,15,14,05,24.80
2012,12,15,14,06,22.60
2012,12,15,14,07,27.30
2012,12,15,14,08,18.90
2012,12,15,14,09,21.60
2012,12,15,14,10,20.20
2012,12,15,14,11,15.70
2012,12,15,14,12,21.00
2012,12,15,14,13,20.90
2012,12,15,14,14,14.00
2012,12,15,14,15,18.10
2012,12,15,14,16,11.50
2012,12,15,14,17,16.40
2012,12,15,14,18,16.50
2012,12,15,14,19,14.50
2012,12,15,14,20,15.80
2012,12,15,14,21,12.50
2012,12,15,14,22,16.70
2012,12,15,14,23,14.00
2012,12,15,14,24,15.40
2012,12,15,14,25,13.40
2012,12,15,14,26,7.30
2012,12,15,14,27,9.40
2012,12,15,14,28,7.90
2012,12,15,14,29,8.50
2012,12,15,14,30,14.80
2012,12,15,14,31,12.90
2012,12,15,14,32,9.40
2012,12,15,14,33,16.60
2012,12,15,14,34,18.10
2012,12,15,14,35,14.50
2012,12,15,14,36,15.60
2012,12,15,14,37,13.20
2012,12,15,14,38,9.60
2012,12,15,14,39,10.20
2012,12,15,14,40,13.50
2012,12,15,14,41,17.60
2012,12,15,14,42,18.70
2012,12,15,14,43,18.10
2012,12,15,14,44,16.70
2012,12,15,14,45,16.50
2012,12,15,14,46,12.90
2012,12,15,14,47,13.40
2012,12,15,14,48,14.60
2012,12,15,14,49,11.10
2012,12,15,14,50,14.00
2012,12,15,14,51,13.50
2012,12,15,14,52,11.00
2012,12,15,14,53,13.30
2012,12,15,14,54,11.30
2012,12,15,14,55,9.20
2012,12,15,14,56,11.60
2012,12,15,14,57,11.80
2012,12,15,14,58,11.30
2012,12,15,14,59,12.30
2012,12,15,15,00,9.40
2012,12,15,15,01,13.10
2012,12,15,15,02,13.60
2012,12,15,15,03,22.90
2012,12,15,15,04,17.70
2012,12,15,15,05,19.40
2012,12,15,15,06,17.40
2012,12,15,15,07,18.70
2012,12,15,15,08,13.90
2012,12,15,15,09,15.20
2012,12,15,15,10,15.50
2012,12,15,15,11,14.20
2012,12,15,15,12,12.20
2012,12,15,15,13,10.20
2012,12,15,15,14,10.30
2012,12,15,15,15,18.20
2012,12,15,15,16,16.30
2012,12,15,15,17,10.10
2012,12,15,15,18,15.60
2012,12,15,15,19,15.90
2012,12,15,15,20,15.70
2012,12,15,15,21,17.70
2012,12,15,15,22,18.40
2012,12,15,15,23,17.10
2012,12,15,15,24,16.60
2012,12,15,15,25,11.90
2012,12,15,15,26,13.00
2012,12,15,15,27,16.40
2012,12,15,15,28,13.80
2012,12,15,15,29,12.20
2012,12,15,15,30,9.40
2012,12,15,15,31,10.90
2012,12,15,15,32,9.80
2012,12,15,15,33,8.30
2012,12,15,15,34,6.30
2012,12,15,15,35,7.10
2012,12,15,15,36,7.10
2012,12,15,15,37,6.40
2012,12,15,15,38,8.70
2012,12,15,15,39,11.90
2012,12,15,15,40,11.00
2012,12,15,15,41,9.60
2012,12,15,15,42,11.70
2012,12,15,15,43,18.50
2012,12,15,15,44,19.20
2012,12,15,15,45,17.90
2012,12,15,15,46,17.20
2012,12,15,15,47,10.90
2012,12,15,15,48,10.30
2012,12,15,15,49,11.80
2012,12,15,15,50,11.10
2012,12,15,15,51,8.90
2012,12,15,15,52,10.70
2012,12,15,15,53,10.20
2012,12,15,15,54,16.60
2012,12,15,15,55,12.50
2012,12,15,15,56,12.00
2012,12,15,15,57,7.70
2012,12,15,15,58,8.30
2012,12,15,15,59,14.70
2012,12,15,16,00,15.90
2012,12,15,16,01,11.90
2012,12,15,16,02,13.80
2012,12,15,16,03,18.40
2012,12,15,16,04,12.80
2012,12,15,16,05,13.10
2012,12,15,16,06,15.40
2012,12,15,16,07,21.10
2012,12,15,16,08,21.50
2012,12,15,16,09,22.20
2012,12,15,16,10,24.10
2012,12,15,16,11,21.90
2012,12,15,16,12,20.00
2012,12,15,16,13,22.50
2012,12,15,16,14,21.30
2012,12,15,16,15,16.30
2012,12,15,16,16,18.30
2012,12,15,16,17,18.50
2012,12,15,16,18,18.60
2012,12,15,16,19,18.90
2012,12,15,16,20,13.80
2012,12,15,16,21,15.90
2012,12,15,16,22,16.00
2012,12,15,16,23,16.60
2012,12,15,16,24,17.70
2012,12,15,16,25,16.10
2012,12,15,16,26,19.60
2012,12,15,16,27,15.10
2012,12,15,16,28,13.00
2012,12,15,16,29,17.90
2012,12,15,16,30,18.10
2012,12,15,16,31,16.00
2012,12,15,16,32,9.80
2012,12,15,16,33,12.80
2012,12,15,16,34,9.20
2012,12,15,16,35,10.20
2012,12,15,16,36,13.10
2012,12,15,16,37,9.60
2012,12,15,16,38,15.40
2012,12,15,16,39,13.30
2012,12,15,16,40,12.50
2012,12,15,16,41,11.40
2012,12,15,16,42,9.20
2012,12,15,16,43,10.90
2012,12,15,16,44,9.30
2012,12,15,16,45,8.50
2012,12,15,16,46,7.70
2012,12,15,16,47,7.90
2012,12,15,16,48,6.90
2012,12,15,16,49,9.20
2012,12,15,16,50,8.50
2012,12,15,16,51,8.60
2012,12,15,16,52,12.20
2012,12,15,16,53,10.50
2012,12,15,16,54,10.50
2012,12,15,16,55,9.20
2012,12,15,16,56,4.70
2012,12,15,16,57,4.40
2012,12,15,16,58,5.10
2012,12,15,16,59,8.90
2012,12,15,17,00,7.80
2012,12,15,17,01,8.30
2012,12,15,17,02,8.20
2012,12,15,17,03,6.60
2012,12,15,17,04,7.60
2012,12,15,17,05,6.40
2012,12,15,17,06,7.60
2012,12,15,17,07,7.30
2012,12,15,17,08,7.00
2012,12,15,17,09,5.80
2012,12,15,17,10,7.20
2012,12,15,17,11,14.90
2012,12,15,17,12,8.90
2012,12,15,17,13,10.00
2012,12,15,17,14,11.50
2012,12,15,17,15,10.50
2012,12,15,17,16,7.60
2012,12,15,17,17,4.50
2012,12,15,17,18,6.20
2012,12,15,17,19,6.10
2012,12,15,17,20,8.90
2012,12,15,17,21,7.10
2012,12,15,17,22,9.20
2012,12,15,17,23,8.30
2012,12,15,17,24,4.60